TimeMDT,TemperatureF,Dew PointF,Humidity,Sea Level PressureIn,VisibilityMPH,Wind Direction,Wind SpeedMPH,Gust SpeedMPH,PrecipitationIn,Events,Conditions,WindDirDegrees,DateUTC
12:53 AM,64.9,54.0,68,29.91,10.0,SSE,4.6,-,N/A,,Mostly Cloudy,160,2013-07-28 06:53:00
1:53 AM,64.0,55.9,75,29.90,10.0,SSE,6.9,-,0.00,Rain,Light Rain,150,2013-07-28 07:53:00
2:53 AM,61.0,55.9,83,29.88,10.0,SE,6.9,-,0.01,Rain,Light Rain,130,2013-07-28 08:53:00
3:53 AM,60.1,55.9,86,29.87,10.0,SE,5.8,-,0.00,,Overcast,130,2013-07-28 09:53:00
4:53 AM,60.1,57.0,90,29.87,10.0,South,3.5,-,N/A,,Clear,170,2013-07-28 10:53:00
5:53 AM,60.1,55.9,86,29.86,10.0,SE,3.5,-,N/A,,Clear,140,2013-07-28 11:53:00
6:53 AM,59.0,57.0,93,29.86,9.0,SE,5.8,-,0.00,Rain,Light Rain,140,2013-07-28 12:53:00
7:53 AM,60.1,57.9,93,29.86,10.0,ESE,6.9,-,0.01,,Partly Cloudy,120,2013-07-28 13:53:00
8:14 AM,60.8,57.2,88,30.03,10.0,ESE,8.1,-,N/A,,Mostly Cloudy,110,2013-07-28 14:14:00
8:27 AM,60.8,57.2,88,30.03,10.0,SE,6.9,-,N/A,,Overcast,130,2013-07-28 14:27:00
8:53 AM,61.0,57.9,90,29.88,10.0,ESE,9.2,-,N/A,,Mostly Cloudy,110,2013-07-28 14:53:00
9:00 AM,62.6,57.2,82,30.02,10.0,ESE,10.4,-,N/A,,Scattered Clouds,110,2013-07-28 15:00:00
9:53 AM,64.9,57.9,78,29.87,10.0,East,6.9,-,N/A,,Partly Cloudy,90,2013-07-28 15:53:00
10:53 AM,68.0,59.0,73,29.86,10.0,Calm,Calm,-,N/A,,Partly Cloudy,0,2013-07-28 16:53:00
11:53 AM,70.0,57.0,63,29.85,10.0,Variable,5.8,-,N/A,,Clear,0,2013-07-28 17:53:00
12:53 PM,75.0,57.0,53,29.82,10.0,SSE,6.9,-,N/A,,Clear,160,2013-07-28 18:53:00
1:53 PM,77.0,55.9,48,29.80,10.0,ESE,5.8,-,N/A,,Scattered Clouds,120,2013-07-28 19:53:00
2:07 PM,75.2,55.4,50,29.98,10.0,South,6.9,-,N/A,,Mostly Cloudy,190,2013-07-28 20:07:00
2:53 PM,77.0,55.0,47,29.79,10.0,SSE,5.8,-,N/A,,Partly Cloudy,150,2013-07-28 20:53:00
3:53 PM,77.0,59.0,54,29.78,10.0,SSE,9.2,-,N/A,,Clear,150,2013-07-28 21:53:00
4:53 PM,79.0,57.0,47,29.76,10.0,SSE,8.1,-,N/A,,Clear,150,2013-07-28 22:53:00
5:53 PM,79.0,57.0,47,29.78,10.0,SE,13.8,-,N/A,,Clear,140,2013-07-28 23:53:00
6:53 PM,72.0,60.1,66,29.84,10.0,NE,23.0,-,N/A,,Overcast,50,2013-07-29 00:53:00
7:00 PM,71.6,59.0,64,29.99,10.0,NE,23.0,-,N/A,,Mostly Cloudy,50,2013-07-29 01:00:00
7:53 PM,69.1,59.0,70,29.86,10.0,NE,19.6,-,N/A,,Mostly Cloudy,50,2013-07-29 01:53:00
8:53 PM,68.0,60.1,76,29.86,10.0,East,9.2,-,N/A,,Overcast,80,2013-07-29 02:53:00
9:53 PM,66.9,60.1,79,29.89,10.0,East,16.1,-,N/A,,Mostly Cloudy,100,2013-07-29 03:53:00
10:53 PM,64.9,60.1,84,29.90,10.0,ENE,4.6,-,N/A,,Overcast,60,2013-07-29 04:53:00
11:42 PM,64.4,59.0,83,30.05,10.0,SSE,8.1,-,N/A,,Overcast,150,2013-07-29 05:42:00
11:53 PM,64.9,59.0,81,29.89,10.0,SSE,6.9,-,N/A,,Overcast,160,2013-07-29 05:53:00